Stations météo

réclame
Mon MeteoGroup
Kempten, Allemagne (10946): Température de l'air & dewpoint: 19.09.2018 09:00:00 - 25.09.2018 09:00:00 (CEST)Kempten, Allemagne (10946): Température de l'air 5cm & Température de l'air -5cm: 19.09.2018 09:00:00 - 25.09.2018 09:00:00 (CEST)Kempten, Allemagne (10946): Température de l'air -20cm & Température de l'air -100cm: 19.09.2018 09:00:00 - 25.09.2018 09:00:00 (CEST)Kempten, Allemagne (10946): Vitesse du vent & gusts: 19.09.2018 09:00:00 - 25.09.2018 09:00:00 (CEST)Kempten, Allemagne (10946): Direction du vent: 19.09.2018 09:00:00 - 25.09.2018 09:00:00 (CEST)Kempten, Allemagne (10946): reduced air pressure: 19.09.2018 09:00:00 - 25.09.2018 09:00:00 (CEST)Kempten, Allemagne (10946): visibility: 19.09.2018 09:00:00 - 25.09.2018 09:00:00 (CEST)Kempten, Allemagne (10946): Ensoleillement: 19.09.2018 09:00:00 - 25.09.2018 09:00:00 (CEST)Kempten, Allemagne (10946): Quantités de précipitations: 19.09.2018 09:00:00 - 25.09.2018 09:00:00 (CEST)
Date & Time tt [°C] td [°C] tt 5cm [°C] tt -5cm [°C] tt -20cm [°C] tt -100cm [°C] ff [km/h] ff [knt] fx [km/h] fx [knt] dd ppp [hPa] vv [km] sd [min] rr [mm]
25.09.2018 09:00:00 4,6 2,2 4,9 6,7 11,5 17,4 2 1 6 3 ESE 1038,1 24 60 0,0
25.09.2018 08:00:00 0,8 0,2 -0,1 6,3 11,8 17,4 4 2 6 3 E 1038,8 8 12 0,0
25.09.2018 07:00:00 0,6 -0,1 -1,0 6,5 12,1 17,4 5 3 7 4 ESE 1038,4 13 0 0,0
25.09.2018 06:00:00 0,7 -0,1 -0,7 6,9 12,4 17,4 4 2 7 4 ESE 1038,6 17 0 0,0
25.09.2018 05:00:00 1,5 0,6 -0,2 7,4 12,7 17,4 4 2 8 5 E 1038,3 19 0 0,0
25.09.2018 04:00:00 2,0 1,2 2,0 7,7 13,0 17,4 6 3 9 5 ESE 1038,4 20 0 0,0
25.09.2018 03:00:00 2,1 1,3 0,6 7,9 13,4 17,5 7 4 11 6 ESE 1038,4 19 0 0,0
25.09.2018 02:00:00 2,0 1,1 0,4 8,4 13,8 17,5 6 4 12 6 ESE 1038,2 20 0 0,0
25.09.2018 01:00:00 2,4 1,5 0,8 8,8 14,2 17,5 5 3 10 5 E 1037,9 22 0 0,0
25.09.2018 00:00:00 2,4 1,4 1,1 9,4 14,7 17,5 7 4 10 6 E 1037,9 22 0 0,0
24.09.2018 23:00:00 2,6 1,4 1,6 10,1 15,1 17,5 6 3 8 4 ESE 1037,5 23 0 0,0
24.09.2018 22:00:00 3,4 1,9 2,2 10,8 15,5 17,5 7 4 9 5 E 1036,8 23 0 0,0
24.09.2018 21:00:00 4,6 2,6 3,5 11,7 15,9 17,5 5 3 8 5 ESE 1036,2 27 0 0,0
24.09.2018 20:00:00 6,5 3,0 4,0 12,8 16,2 17,5 0 0 10 5 N 1034,8 36 0 0,0
24.09.2018 19:00:00 9,9 -0,1 8,1 14,3 16,4 17,5 4 2 13 7 NNW 1033,1 42 53 0,0
24.09.2018 18:00:00 11,2 -2,0 12,3 15,4 16,3 17,5 10 5 17 9 NW 1032,4 26 60 0,0
24.09.2018 17:00:00 11,7 0,5 13,6 16,0 16,1 17,5 9 5 20 11 NW 1032,0 11 52 0,0
24.09.2018 16:00:00 11,0 -0,5 13,6 16,8 15,8 17,5 9 5 22 12 NNW 1032,3 29 54 0,0
24.09.2018 15:00:00 10,4 0,7 12,4 16,2 15,4 17,5 10 5 22 12 NW 1032,7 40 42 0,0
24.09.2018 14:00:00 11,2 0,5 16,7 16,5 15,0 17,5 5 3 18 10 W 1032,7 32 38 0,0
24.09.2018 13:00:00 9,9 2,0 11,4 15,1 14,8 17,5 7 4 16 9 NW 1033,3 42 32 0,0
24.09.2018 12:00:00 9,3 2,2 12,5 13,3 14,7 17,5 4 2 11 6 NW 1033,3 38 23 0,0
24.09.2018 11:00:00 7,2 3,5 7,9 11,5 14,8 17,5 4 2 14 8 NNW 1033,7 36 0 0,0
24.09.2018 10:00:00 6,9 3,4 6,7 11,5 14,9 17,5 6 4 15 8 NNW 1033,1 35 0 0,0
24.09.2018 09:00:00 6,6 4,4 6,9 11,2 15,2 17,5 7 4 21 12 NW 1032,1 30 0 0,0
24.09.2018 08:00:00 6,3 4,6 6,3 11,3 15,4 17,5 8 5 22 12 NW 1030,7 26 0 0,1
24.09.2018 07:00:00 6,6 5,0 6,4 11,4 15,7 17,5 5 3 20 11 NW 1029,0 25 0 0,3
24.09.2018 06:00:00 7,7 5,6 7,4 11,9 16,0 17,6 7 4 21 11 NW 1027,4 28 0 0,0
24.09.2018 05:00:00 8,0 5,7 7,6 12,4 16,2 17,6 8 4 18 10 NW 1026,5 24 0 0,0
24.09.2018 04:00:00 8,2 5,6 7,7 12,6 16,5 17,6 5 3 24 13 WNW 1025,7 44 0 0,0
24.09.2018 03:00:00 8,9 7,0 8,8 13,1 16,7 17,6 6 3 14 8 WNW 1024,8 44 0 0,0
24.09.2018 02:00:00 9,3 6,7 8,7 13,3 17,0 17,6 3 1 19 11 NNW 1023,8 70 0 0,0
24.09.2018 01:00:00 9,4 7,8 9,1 13,4 17,4 17,6 7 4 36 20 NW 1022,5 46 0 1,5
24.09.2018 00:00:00 10,2 9,2 10,0 13,9 17,9 17,6 14 8 34 18 NW 1020,3 1,5 0 6,5
23.09.2018 23:00:00 12,6 10,3 11,7 14,9 18,5 17,6 15 8 41 22 W 1016,9 10 0 4,4
23.09.2018 22:00:00 13,0 11,7 12,4 16,0 18,8 17,6 23 12 74 40 WNW 1013,6 1,4 0 5,4
23.09.2018 21:00:00 21,0 14,2 18,5 18,1 19,1 17,6 18 10 39 21 WSW 1008,3 40 0 0,1
23.09.2018 20:00:00 21,7 13,9 19,5 18,4 19,3 17,6 17 9 58 31 W 1007,4 49 0 0,0
23.09.2018 19:00:00 21,9 14,1 19,7 19,6 19,4 17,6 14 7 39 21 SW 1007,3 56 36 0,0
23.09.2018 18:00:00 23,0 13,7 22,6 21,4 19,3 17,6 18 10 45 24 SW 1008,0 40 60 0,0
23.09.2018 17:00:00 24,0 14,0 24,7 22,6 18,9 17,6 17 9 48 26 WSW 1008,7 12 60 0,0
23.09.2018 16:00:00 23,9 13,9 26,5 23,4 18,4 17,6 19 10 42 23 WSW 1009,9 14 59 0,0
23.09.2018 15:00:00 23,3 13,9 25,7 22,4 17,9 17,6 20 11 45 25 WSW 1011,0 18 49 0,0
23.09.2018 14:00:00 21,3 13,6 22,6 21,5 17,3 17,6 15 8 38 20 WSW 1013,2 25 43 0,0
23.09.2018 13:00:00 21,3 13,4 22,5 20,4 16,8 17,6 18 10 36 19 W 1013,9 39 58 0,0
23.09.2018 12:00:00 19,8 13,7 21,0 18,1 16,4 17,6 11 6 31 17 WSW 1014,8 43 17 0,0
23.09.2018 11:00:00 18,7 13,0 18,9 17,2 16,2 17,6 13 7 26 14 W 1015,9 53 4 0,0
23.09.2018 10:00:00 18,1 13,1 17,5 15,8 16,1 17,6 13 7 31 17 SW 1016,2 63 3 0,0
23.09.2018 09:00:00 16,8 12,7 15,3 15,0 16,0 17,6 12 6 25 13 SW 1016,5 50 1 0,0
23.09.2018 08:00:00 15,3 12,9 14,1 14,4 16,0 17,6 8 4 19 10 SW 1017,0 48 0 0,0
23.09.2018 07:00:00 14,3 12,3 13,2 14,0 16,1 17,6 10 6 28 15 SSW 1017,6 33 0 0,0
23.09.2018 06:00:00 13,2 11,5 12,5 13,7 16,3 17,6 16 9 31 17 SSW 1018,0 30 0 0,0
23.09.2018 05:00:00 11,9 10,8 11,7 13,7 16,4 17,7 16 9 29 16 SSW 1019,0 54 0 0,5
23.09.2018 04:00:00 11,4 10,4 11,4 13,9 16,6 17,7 7 4 22 12 S 1020,3 12 0 0,8
23.09.2018 03:00:00 11,1 10,0 11,0 14,0 16,8 17,7 8 5 29 16 SSW 1021,4 3,0 0 0,7
23.09.2018 02:00:00 11,7 9,3 10,9 14,3 17,0 17,7 7 4 24 13 WSW 1022,1 6 0 0,1
23.09.2018 01:00:00 11,9 9,9 11,4 14,8 17,1 17,7 4 2 8 5 SW 1021,7 29 0 0,4
23.09.2018 00:00:00 12,1 10,3 12,0 15,0 17,3 17,7 4 2 15 8 SW 1021,2 13 0 0,1
22.09.2018 23:00:00 11,7 10,0 11,7 15,2 17,5 17,7 4 2 10 5 S 1021,3 18 0 0,3
22.09.2018 22:00:00 12,8 8,9 12,1 15,5 17,7 17,7 4 2 11 6 S 1020,9 33 0 0,0
22.09.2018 21:00:00 12,8 8,7 11,7 15,7 18,0 17,7 5 3 13 7 SSW 1021,5 25 0 0,1
22.09.2018 20:00:00 13,7 7,0 12,9 16,1 18,2 17,7 5 3 12 6 SW 1020,5 37 0 0,0
22.09.2018 19:00:00 14,2 6,2 13,7 17,0 18,3 17,7 8 4 20 11 SW 1020,4 38 20 0,0
22.09.2018 18:00:00 16,0 5,7 17,1 18,9 18,2 17,7 10 5 21 12 W 1020,3 32 60 0,0
22.09.2018 17:00:00 15,9 5,6 17,0 19,4 18,0 17,7 9 5 19 10 WSW 1020,3 33 49 0,0
22.09.2018 16:00:00 15,8 5,5 17,4 19,8 17,6 17,7 8 4 21 12 W 1021,0 42 47 0,0
22.09.2018 15:00:00 15,0 6,1 19,6 19,5 17,2 17,6 4 2 13 7 E 1021,5 21 47 0,0
22.09.2018 14:00:00 13,9 6,6 17,4 17,8 16,9 17,6 7 4 13 7 W 1022,4 25 8 0,0
22.09.2018 13:00:00 13,3 5,7 16,1 17,1 16,6 17,6 6 3 13 7 WSW 1023,5 45 10 0,0
22.09.2018 12:00:00 12,7 5,2 15,6 16,1 16,3 17,6 6 4 13 7 SSW 1024,1 36 12 0,0
22.09.2018 11:00:00 12,3 5,5 14,0 14,9 16,2 17,6 3 2 9 5 WSW 1024,7 39 18 0,0
22.09.2018 10:00:00 11,6 6,3 10,7 13,8 16,3 17,6 5 3 10 6 WNW 1025,1 41 52 0,0
22.09.2018 09:00:00 10,2 7,4 9,9 13,0 16,5 17,6 5 3 9 5 S 1024,7 32 29 0,0
22.09.2018 08:00:00 8,7 7,5 7,7 12,6 16,8 17,6 6 3 10 5 SE 1025,0 23 0 0,0
22.09.2018 07:00:00 9,0 8,0 8,4 13,0 17,0 17,6 2 1 9 5 SSE 1025,5 18 0 0,0
22.09.2018 06:00:00 9,8 7,5 8,8 13,2 17,3 17,6 4 2 16 9 SW 1024,8 28 0 0,0
22.09.2018 05:00:00 10,1 7,0 9,3 13,6 17,6 17,6 6 3 19 11 W 1024,7 31 0 0,0
22.09.2018 04:00:00 9,5 8,1 9,8 13,9 17,9 17,6 9 5 19 11 S 1024,1 24 0 0,0
22.09.2018 03:00:00 10,1 8,5 9,8 14,2 18,2 17,6 6 3 15 8 SSW 1023,6 33 0 0,0
22.09.2018 02:00:00 9,9 8,2 9,8 14,5 18,5 17,6 8 4 21 12 SW 1023,7 36 0 0,0
22.09.2018 01:00:00 9,9 8,4 10,0 15,0 18,9 17,6 10 5 17 9 SSW 1023,3 31 0 0,3
22.09.2018 00:00:00 10,8 8,8 10,4 15,4 19,3 17,6 6 4 30 16 W 1022,1 9 0 0,8
21.09.2018 23:00:00 11,8 9,8 11,2 16,2 19,7 17,6 14 7 29 16 WNW 1020,8 6 0 2,4
21.09.2018 22:00:00 13,2 12,0 13,0 17,4 20,0 17,6 11 6 32 17 NW 1018,7 3,5 0 1,4
21.09.2018 21:00:00 18,1 13,6 17,1 18,8 20,3 17,6 8 5 18 10 WSW 1015,1 22 0 0,0
21.09.2018 20:00:00 18,0 13,6 16,1 19,2 20,5 17,6 6 3 37 20 SSW 1014,0 21 0 0,1
21.09.2018 19:00:00 21,0 12,4 18,7 20,3 20,6 17,6 19 10 41 22 W 1012,1 20 0 0,0
21.09.2018 18:00:00 23,0 11,4 22,0 21,4 20,5 17,6 11 6 30 16 W 1010,1 32 0 0,0
21.09.2018 17:00:00 23,4 11,8 22,6 22,4 20,3 17,6 8 4 21 11 W 1009,9 29 0 0,0
21.09.2018 16:00:00 24,4 11,2 24,9 23,1 19,9 17,6 12 6 36 19 W 1010,1 21 2 0,0
21.09.2018 15:00:00 24,8 10,4 25,5 24,5 19,3 17,6 12 7 36 20 W 1010,4 22 51 0,0
21.09.2018 14:00:00 25,4 10,0 27,2 23,5 18,6 17,6 14 8 34 18 W 1011,0 15 57 0,0
21.09.2018 13:00:00 25,6 9,4 27,5 22,3 18,0 17,6 15 8 34 18 WSW 1011,3 17 58 0,0
21.09.2018 12:00:00 25,8 9,9 28,6 20,8 17,4 17,6 11 6 27 15 WSW 1011,6 15 60 0,0
21.09.2018 11:00:00 22,4 12,4 22,9 17,6 17,1 17,6 7 4 14 7 S 1012,8 8 60 0,0
21.09.2018 10:00:00 18,3 11,4 18,8 15,6 17,1 17,6 5 3 14 8 S 1014,2 13 60 0,0
21.09.2018 09:00:00 15,8 10,4 13,9 14,5 17,2 17,6 5 3 17 9 SSE 1014,9 25 60 0,0
21.09.2018 08:00:00 13,1 10,1 10,9 14,0 17,4 17,6 6 3 12 7 SSE 1015,7 24 15 0,0
21.09.2018 07:00:00 11,3 9,6 9,1 14,0 17,7 17,6 5 3 11 6 SE 1015,9 21 0 0,0
21.09.2018 06:00:00 12,6 10,2 10,1 14,4 18,0 17,6 3 2 12 6 SSE 1015,8 27 0 0,0
21.09.2018 05:00:00 11,9 10,2 9,9 14,8 18,3 17,6 6 3 13 7 ESE 1016,3 20 0 0,0
21.09.2018 04:00:00 12,6 10,1 10,4 15,2 18,6 17,6 4 2 13 7 SE 1016,3 22 0 0,0
21.09.2018 03:00:00 14,2 10,8 11,2 15,6 18,9 17,6 6 4 16 9 SSE 1016,1 26 0 0,0
21.09.2018 02:00:00 14,4 11,1 11,7 16,0 19,2 17,6 8 4 16 9 SSE 1016,5 24 0 0,0
21.09.2018 01:00:00 14,0 11,4 11,7 16,4 19,6 17,6 8 4 16 9 SE 1017,0 22 0 0,0
21.09.2018 00:00:00 13,4 11,4 11,3 17,0 20,0 17,6 7 4 13 7 SE 1017,8 22 0 0,0
20.09.2018 23:00:00 13,5 11,8 11,8 17,6 20,4 17,6 9 5 11 6 ESE 1018,0 18 0 0,0
20.09.2018 22:00:00 14,0 11,7 12,3 18,5 20,8 17,6 7 4 10 5 ESE 1018,1 23 0 0,0
20.09.2018 21:00:00 15,2 12,3 13,2 19,5 21,1 17,6 5 3 10 6 E 1017,8 24 0 0,0
20.09.2018 20:00:00 17,5 13,1 15,1 20,9 21,3 17,6 7 4 10 6 E 1017,1 31 0 0,0
20.09.2018 19:00:00 22,0 12,8 19,5 22,9 21,3 17,6 2 1 5 3 E 1015,7 37 57 0,0
20.09.2018 18:00:00 25,4 8,7 26,2 24,3 21,0 17,6 3 2 9 5 NNE 1015,4 48 60 0,0
20.09.2018 17:00:00 26,4 8,9 27,7 25,6 20,5 17,6 4 2 13 7 ENE 1015,5 17 60 0,0
20.09.2018 16:00:00 26,2 8,7 29,4 26,0 19,9 17,6 5 3 14 8 N 1016,0 6 60 0,0
20.09.2018 15:00:00 25,9 9,4 28,6 26,0 19,2 17,6 4 2 14 7 WNW 1016,5 46 60 0,0
20.09.2018 14:00:00 25,2 8,7 28,7 24,7 18,4 17,6 3 2 16 8 ENE 1017,5 21 60 0,0
20.09.2018 13:00:00 24,3 11,2 27,1 22,4 17,6 17,6 5 3 15 8 NNW 1018,3 35 60 0,0
20.09.2018 12:00:00 23,0 9,1 24,4 20,2 17,1 17,6 2 1 8 5 WSW 1019,3 33 60 0,0
20.09.2018 11:00:00 20,2 10,9 20,9 17,3 16,8 17,6 5 3 10 6 SSE 1020,5 15 60 0,0
20.09.2018 10:00:00 17,5 10,7 16,3 15,1 16,7 17,6 6 4 16 9 SSE 1021,4 10 60 0,0
20.09.2018 09:00:00 14,8 9,9 13,9 14,1 16,9 17,6 9 5 15 8 SE 1022,1 14 60 0,0
20.09.2018 08:00:00 12,2 9,6 10,3 13,5 17,1 17,6 10 5 14 8 ESE 1022,7 18 16 0,0
20.09.2018 07:00:00 11,7 9,7 9,6 13,7 17,4 17,6 10 5 14 8 ESE 1022,7 22 0 0,0
20.09.2018 06:00:00 11,8 10,1 9,7 14,0 17,7 17,6 8 5 15 8 ESE 1022,5 15 0 0,0
20.09.2018 05:00:00 12,2 10,6 10,1 14,4 18,0 17,6 8 4 13 7 ESE 1022,4 19 0 0,0
20.09.2018 04:00:00 12,0 10,7 10,1 14,7 18,3 17,6 6 4 11 6 ESE 1022,6 18 0 0,0
20.09.2018 03:00:00 12,9 11,2 10,9 15,3 18,7 17,6 9 5 13 7 ESE 1022,2 20 0 0,0
20.09.2018 02:00:00 13,3 11,4 11,3 15,7 19,0 17,6 8 4 15 8 ESE 1022,2 19 0 0,0
20.09.2018 01:00:00 13,8 11,8 11,6 16,2 19,4 17,6 8 4 14 8 ESE 1022,3 20 0 0,0
20.09.2018 00:00:00 14,1 12,0 12,2 16,8 19,7 17,6 9 5 16 9 ESE 1022,5 20 0 0,0
19.09.2018 23:00:00 14,4 12,4 12,2 17,4 20,1 17,6 8 5 14 8 ESE 1022,4 22 0 0,0
19.09.2018 22:00:00 14,5 12,5 12,3 18,1 20,5 17,6 7 4 10 5 ESE 1022,3 19 0 0,0
19.09.2018 21:00:00 15,2 12,5 13,2 19,2 20,8 17,6 8 4 10 5 ESE 1021,8 23 0 0,0
19.09.2018 20:00:00 17,7 13,7 15,1 20,5 21,1 17,6 7 4 8 5 ESE 1020,6 28 0 0,0
19.09.2018 19:00:00 22,7 10,7 19,4 22,3 21,1 17,6 3 2 11 6 WNW 1019,1 37 58 0,0
19.09.2018 18:00:00 24,7 10,2 25,3 24,1 20,8 17,6 4 2 10 5 NNW 1018,1 14 60 0,0
19.09.2018 17:00:00 25,1 10,5 26,5 25,3 20,4 17,6 5 3 13 7 NNW 1018,1 20 60 0,0
19.09.2018 16:00:00 24,7 11,4 27,4 25,9 19,9 17,6 6 3 16 9 NNW 1018,5 37 60 0,0
19.09.2018 15:00:00 24,6 11,8 27,4 25,3 19,2 17,6 5 3 16 9 WNW 1018,6 41 57 0,0
19.09.2018 14:00:00 24,0 11,5 27,4 25,3 18,4 17,6 6 3 16 9 NNE 1019,1 20 60 0,0
19.09.2018 13:00:00 24,1 12,7 26,7 23,5 17,6 17,6 4 2 9 5 NW 1019,2 22 60 0,0
19.09.2018 12:00:00 22,3 12,1 25,3 20,8 17,1 17,6 4 2 8 5 SSW 1020,1 19 60 0,0
19.09.2018 11:00:00 20,4 12,6 21,2 17,8 16,7 17,6 5 3 14 7 SSW 1020,7 22 60 0,0
19.09.2018 10:00:00 18,4 12,4 19,1 15,8 16,6 17,6 9 5 15 8 SSE 1021,1 21 60 0,0
19.09.2018 09:00:00 16,1 12,0 14,7 14,7 16,7 17,6 6 4 12 7 S 1021,4 20 60 0,0

tt = Température de l'air
td = dewpoint
tt 5cm = Température de l'air 5cm
tt -5cm = Température de l'air -5cm
tt -20cm = Température de l'air -20cm
tt -100cm = Température de l'air -100cm
ff = Vitesse du vent
fx = gusts
dd = Direction du vent
ppp = reduced air pressure
vv = visibility
sd = Ensoleillement
rr = Quantités de précipitations

stations d'obs. à proximité